Regional Weather Roundup
Issued by NWS Sioux Falls, SD

Home | Current Version | Previous Version | Graphics & Text | Print | Product List | Glossary On
Versions: 1 2 3 4 5 6 7 8 9 10 11 12 13 14 15 16 17 18 19 20 21 22 23 24 25 26 27 28 29 30 31 32 33 34 35 36 37 38 39 40 41 42 43 44 45 46 47 48 49 50
000
ASUS43 KFSD 220902
RWRFSD

WEATHER ROUNDUP FOR SE SOUTH DAKOTA/SW MINNESOTA/NW IOWA
NATIONAL WEATHER SERVICE SIOUX FALLS SD
400 AM CDT TUE JUL 22 2014

NOTE: "FAIR" INDICATES FEW OR NO CLOUDS BELOW 12,000 FEET WITH NO
SIGNIFICANT WEATHER AND OR OBSTRUCTIONS TO VISIBILITY.


SDZ038>040-050-052>070-221000-
SOUTHEAST SOUTH DAKOTA

CITY           SKY/WX    TMP DP  RH WIND       PRES   REMARKS
CHAMBERLAIN    LGT RAIN  68  64  89 NE8       30.04F
HURON          LGT RAIN  68  63  84 NW15G26   30.01R
MADISON        FAIR      68  66  94 E7        29.92S
MITCHELL       CLEAR     69  63  81 NW26G36   30.04R
SIOUX FALLS    CLEAR     76  69  79 N9G18     29.89R
WINNER         TSTM      70  63  78 VRB6      30.02F
YANKTON        PTCLDY    75  72  88 NW15      29.87R
$$

MNZ071-072-080-081-089-090-097-098-221000-
SOUTHWEST MINNESOTA

CITY           SKY/WX    TMP DP  RH WIND       PRES   REMARKS
FAIRMONT       CLEAR     77  72  83 SW5       29.85S
LUVERNE        CLEAR     77  73  88 N5        29.89R
MARSHALL       PTCLDY    70  63  78 W7        29.88R
MONTEVIDEO     CLEAR     66  63  88 N7        29.88R
PIPESTONE      CLEAR     70  64  83 N8        29.93R
REDWOOD FALLS  CLEAR     72  66  81 NW8       29.84R
TRACY          PTCLDY    71  67  87 CALM      29.89R
WINDOM         CLEAR     77  73  88 NW8       29.87R
WORTHINGTON    CLEAR     77  73  88 SW6       29.90R
$$

IAZ001>003-012>014-020>022-031-032-NEZ013-014-SDZ071-221000-
NORTHWEST IOWA

CITY           SKY/WX    TMP DP  RH WIND       PRES   REMARKS
CHEROKEE       PTCLDY    77  76  95 CALM      29.86R
DENISON        MOCLDY    79  75  89 CALM      29.88R
ESTHERVILLE    CLEAR     74  73  97 S6        29.85S FOG
LE MARS        PTCLDY    75  75 100 CALM      29.86R
ORANGE CITY    CLEAR     73  72  94 SW3       29.87R FOG
SHELDON        PTCLDY    73  73 100 NW5       29.86R FOG
SIOUX CITY     CLEAR     79  74  84 N6        29.85S
SPENCER        PTCLDY    76  73  91 CALM      29.86R
STORM LAKE     PTCLDY    77  77 100 SW7       29.88S
$$

ABBREVIATIONS USED IN REMARKS
   TC - TEMPERATURE IN CELSIUS
  WCI - WIND CHILL INDEX
   HX - HEAT INDEX
  VSB - VISIBILITY




USA.gov is the U.S. government's official web portal to all federal, state and local government web resources and services.